EW2099 Weather Reports


Display with metric or nautical units.
time (UTC)temp
F
wind
direction
speed
MPH
gust
MPH
rain 1hr
in
rain 24hr
in
rain mn
in
humidity
%
barometer
mb
20260505173001 53 60 7.0 16.0 0.00 0.00 0.00 64 1010.2
20260505171559 53 60 10.0 18.0 0.00 0.00 0.00 65 1010.2
20260505170110 53 34 5.0 16.0 0.00 0.00 0.00 64 1010.3
20260505164556 53 58 7.0 19.0 0.00 0.00 0.00 63 1010.4
20260505163056 54 53 5.0 14.0 0.00 0.00 0.00 63 1010.3
20260505161615 54 37 7.0 16.0 0.00 0.00 0.00 63 1010.4
20260505153101 54 36 6.0 14.0 0.00 0.00 0.00 63 1010.5
20260505151601 55 26 7.0 17.0 0.00 0.00 0.00 62 1010.7
20260505124542 54 16 9.0 19.0 0.00 0.00 0.00 62 1011.2
20260505123040 55 89 8.0 15.0 0.00 0.00 0.00 61 1011.2
20260505121546 55 75 8.0 17.0 0.00 0.00 0.00 60 1011.2
20260505120043 56 62 8.0 17.0 0.00 0.00 0.00 60 1011.2
20260505114540 55 46 6.0 16.0 0.00 0.00 0.00 60 1011.2
20260505113041 55 41 9.0 17.0 0.00 0.00 0.00 60 1011.2
20260505111541 56 24 9.0 17.0 0.00 0.00 0.00 58 1011.4
20260505101534 54 27 12.0 18.0 0.00 0.00 0.00 60 1011.7
20260505100031 55 63 8.0 18.0 0.00 0.00 0.00 60 1011.7
20260505094529 55 64 8.0 16.0 0.00 0.00 0.00 60 1011.8
20260505093034 54 357 8.0 17.0 0.00 0.00 0.00 60 1011.8
20260505091530 55 341 6.0 15.0 0.00 0.00 0.00 60 1011.8
20260505090026 55 336 8.0 14.0 0.00 0.00 0.00 60 1011.7
20260505084525 55 51 5.0 14.0 0.00 0.00 0.00 60 1011.8
20260505083021 54 346 7.0 15.0 0.00 0.00 0.00 62 1011.9
20260505081524 53 23 7.0 12.0 0.00 0.00 0.00 63 1012.1
20260505080018 53 37 4.0 13.0 0.00 0.00 0.00 63 1012.1
20260505074517 53 40 7.0 14.0 0.00 0.00 0.00 63 1012.0
20260505073016 53 23 5.0 13.0 0.00 0.00 0.00 63 1012.0
20260505071514 53 49 4.0 14.0 0.00 0.00 0.00 63 1011.8
20260505070013 53 28 7.0 15.0 0.00 0.00 0.00 63 1011.8
20260505064512 52 39 7.0 15.0 0.00 0.00 0.00 63 1011.7
20260505063012 52 64 5.0 14.0 0.00 0.00 0.00 65 1011.8
20260505061507 51 56 4.0 17.0 0.00 0.00 0.00 66 1012.0
20260505060014 51 77 5.0 13.0 0.00 0.00 0.00 66 1012.0
20260505054503 51 39 5.0 10.0 0.00 0.00 0.00 66 1012.2
20260505053002 51 54 4.0 10.0 0.00 0.00 0.00 67 1012.3
20260505051501 51 51 6.0 12.0 0.00 0.00 0.00 67 1012.3
20260505041555 51 32 4.0 11.0 0.00 0.00 0.00 68 1012.5
20260505040054 51 63 3.0 10.0 0.00 0.00 0.00 68 1012.5
20260505034553 51 27 1.0 8.0 0.00 0.00 0.00 69 1012.4
20260505033110 51 49 3.0 10.0 0.00 0.00 0.00 69 1012.5
20260505031551 51 41 2.0 12.0 0.00 0.00 0.00 69 1012.6
20260505030052 51 39 3.0 9.0 0.00 0.01 0.00 69 1012.6
20260505024550 51 34 4.0 13.0 0.00 0.01 0.00 68 1012.7
20260505023059 52 349 5.0 11.0 0.00 0.01 0.00 69 1012.6
20260505021548 52 44 4.0 13.0 0.00 0.01 0.00 69 1012.3
20260505020051 52 33 3.0 10.0 0.00 0.01 0.00 69 1012.3
20260505014544 52 40 6.0 13.0 0.00 0.01 0.00 69 1012.4
20260505013041 52 26 4.0 12.0 0.00 0.01 0.00 70 1012.6
20260505011537 52 33 5.0 13.0 0.00 0.01 0.00 70 1012.8
20260505010040 51 11 4.0 11.0 0.00 0.01 0.00 71 1013.0
20260505004543 52 76 6.0 13.0 0.00 0.01 0.00 71 1013.2
20260505003032 52 32 4.0 11.0 0.00 0.01 0.00 71 1013.3
20260505001531 52 8 6.0 13.0 0.00 0.01 0.00 71 1013.3
20260505000031 52 63 6.0 14.0 0.00 0.01 0.00 71 1013.4
20260504234533 52 52 5.0 16.0 0.00 0.01 0.00 71 1013.3
20260504233022 52 359 5.0 13.0 0.00 0.01 0.00 71 1013.4
20260504231532 51 30 4.0 11.0 0.00 0.01 0.00 71 1013.5
20260504230014 51 46 4.0 15.0 0.00 0.01 0.00 72 1013.6
20260504224515 51 30 7.0 16.0 0.00 0.01 0.00 72 1013.6
20260504223010 51 58 5.0 15.0 0.00 0.01 0.00 71 1013.7
20260504221507 51 21 6.0 11.0 0.00 0.01 0.00 71 1013.9
20260504220003 52 27 5.0 13.0 0.00 0.01 0.01 71 1014.0
20260504214604 52 30 6.0 13.0 0.00 0.01 0.01 72 1014.1
20260504213105 51 41 5.0 11.0 0.00 0.01 0.01 72 1014.3
20260504211605 52 11 7.0 13.0 0.00 0.01 0.01 72 1014.4
20260504210104 52 15 5.0 11.0 0.00 0.01 0.01 72 1014.4
20260504204637 51 36 5.0 12.0 0.00 0.01 0.01 72 1014.5
20260504203055 52 355 7.0 12.0 0.00 0.01 0.01 72 1014.5
20260504201552 52 7 5.0 12.0 0.00 0.01 0.01 71 1014.4
20260504200055 53 24 5.0 12.0 0.00 0.01 0.01 71 1014.4
20260504194552 53 72 6.0 12.0 0.00 0.01 0.01 71 1014.0
20260504193048 53 31 6.0 13.0 0.00 0.01 0.01 71 1013.9
20260504191547 53 41 5.0 12.0 0.00 0.01 0.01 71 1013.7
20260504190055 53 66 4.0 12.0 0.00 0.01 0.01 72 1013.7
20260504184600 53 40 1.0 13.0 0.00 0.01 0.01 72 1013.6
20260504183053 53 40 7.0 14.0 0.00 0.01 0.01 72 1013.6
20260504181544 53 6 6.0 14.0 0.00 0.01 0.01 71 1013.5
20260504180043 53 65 5.0 12.0 0.00 0.01 0.01 72 1013.7
20260504174542 53 21 7.0 13.0 0.00 0.01 0.01 71 1013.8